This is the latest recevied weather packets stored in our database for station/object W4ZHA. If no packets are shown the sender has not sent any weather packets the latest 10 day(s).
| Time | Temp. | Humidity | Pressure | Rain* | Wind** | Luminosity | Snow |
|---|---|---|---|---|---|---|---|
| 1777640480 | 13.89° C | 66% | 1015.5 hPa | 0 mm | - | 75 W/m² | - |
| 1777640177 | 13.89° C | 65% | 1015.5 hPa | 0 mm | - | 81 W/m² | - |
| 1777639874 | 13.89° C | 67% | 1015.5 hPa | 0 mm | - | 73 W/m² | - |
| 1777639571 | 13.89° C | 67% | 1015.8 hPa | 0 mm | - | 65 W/m² | - |
| 1777639268 | 13.33° C | 68% | 1015.5 hPa | 0 mm | - | 81 W/m² | - |
| 1777638964 | 13.33° C | 68% | 1015.1 hPa | 0 mm | - | 74 W/m² | - |
| 1777638660 | 12.78° C | 65% | 1015.5 hPa | 0 mm | - | 63 W/m² | - |
| 1777638356 | 12.78° C | 65% | 1015.5 hPa | 0 mm | - | 58 W/m² | - |
| 1777638053 | 12.78° C | 65% | 1015.5 hPa | 0 mm | - | 51 W/m² | - |
| 1777637749 | 12.78° C | 65% | 1015.1 hPa | 0 mm | - | 41 W/m² | - |
| 1777637446 | 12.22° C | 66% | 1015.1 hPa | 0 mm | - | 43 W/m² | - |
| 1777637143 | 12.22° C | 67% | 1015.1 hPa | 0 mm | - | 31 W/m² | - |
| 1777636840 | 12.22° C | 66% | 1014.8 hPa | 0 mm | - | 27 W/m² | - |
| 1777636535 | 12.22° C | 67% | 1014.8 hPa | 0 mm | - | 26 W/m² | - |
| 1777636232 | 12.22° C | 66% | 1014.4 hPa | 0 mm | - | 25 W/m² | - |
| 1777635926 | 11.67° C | 66% | 1014.4 hPa | 0 mm | - | 24 W/m² | - |
| 1777635622 | 11.67° C | 67% | 1014.4 hPa | 0 mm | - | 22 W/m² | - |
| 1777635319 | 11.67° C | 67% | 1014.4 hPa | 0 mm | - | 17 W/m² | - |
| 1777635016 | 11.67° C | 67% | 1014.4 hPa | 0 mm | - | 16 W/m² | - |
| 1777634712 | 11.67° C | 66% | 1014.4 hPa | 0 mm | - | 13 W/m² | - |
| 1777634410 | 11.67° C | 65% | 1014.4 hPa | 0 mm | - | 8 W/m² | - |
| 1777634107 | 11.67° C | 66% | 1014.4 hPa | 0 mm | - | 6 W/m² | - |
| 1777633803 | 11.67° C | 66% | 1014.4 hPa | 0 mm | - | 5 W/m² | - |
| 1777633501 | 11.67° C | 65% | 1014.4 hPa | 0 mm | - | 1 W/m² | - |
| 1777633198 | 11.67° C | 66% | 1014.4 hPa | 0 mm | - | 0 W/m² | - |
* Rain latest hour (hover to see other rain measurements)
** Current wind speed in m/s (hover to see current wind gust speed)